Location: Central Coast
(33.3208°S, 151.2336°E)
Time: 23:38:10
(UTC+11:00)

Envisat - Pass Details

Date: 13 October 2017
Orbit: 764 x 766 km, 98.2° (Epoch: 18 December)

Event Time Altitude Azimuth Distance (km) Brightness Sun altitude
Rises 22:05:42 0° 178° (S) 3,262 6.7 -34.6°
Reaches altitude 10° 22:08:10 10° 186° (S) 2,329 6.0 -35.0°
Enters shadow 22:11:41 32° 223° (SW) 1,300 4.6 -35.6°
